Regional Weather Roundup
Issued by NWS Sioux Falls, SD

Home | Current Version | Previous Version | Text Only | Print | Product List | Glossary On
Versions: 1 2 3 4 5 6 7 8 9 10 11 12 13 14 15 16 17 18 19 20 21 22 23 24 25 26 27 28 29 30 31 32 33 34 35 36 37 38 39 40 41 42 43 44 45 46 47 48 49 50
000
ASUS43 KFSD 220710
RWRFSD

WEATHER ROUNDUP FOR SE SOUTH DAKOTA/SW MINNESOTA/NW IOWA
NATIONAL WEATHER SERVICE SIOUX FALLS SD
100 AM CST WED FEB 22 2017

NOTE: "FAIR" INDICATES FEW OR NO CLOUDS BELOW 12,000 FEET WITH NO
SIGNIFICANT WEATHER AND OR OBSTRUCTIONS TO VISIBILITY.


SDZ038>040-050-052>070-220800-
SOUTHEAST SOUTH DAKOTA

CITY           SKY/WX    TMP DP  RH WIND       PRES   REMARKS
BROOKINGS      MOCLDY    49  39  68 N12G39    29.66R
CHAMBERLAIN    PTCLDY    45  38  78 CALM      29.65S
HURON          CLEAR     42  40  92 SE3       29.61F
MADISON        FAIR      45  39  81 S9        29.64S
MITCHELL       PTCLDY    47  36  65 SW8       29.63F
SIOUX FALLS    PTCLDY    43  38  82 SE5       29.66S
WINNER         FAIR      49  36  61 SW8       29.68F
YANKTON        CLEAR     54  34  47 W9        29.64S
$$

MNZ071-072-080-081-089-090-097-098-220800-
SOUTHWEST MINNESOTA

CITY           SKY/WX    TMP DP  RH WIND       PRES   REMARKS
FAIRMONT       CLEAR     38  35  89 CALM      29.69S
JACKSON        CLEAR     45  34  65 CALM      29.70R
LUVERNE        MOCLDY    41  34  75 SE7       29.65F
MARSHALL       MOCLDY    48  40  73 SW8       29.62F
MONTEVIDEO     LGT RAIN  43  43 100 NE3       29.65R
PIPESTONE      PTCLDY    54  36  50 SE12      29.63F
REDWOOD FALLS  CLOUDY    45  39  79 SE7       29.59F
TRACY          PTCLDY    53  41  64 S10       29.61F
WINDOM         PTCLDY    45  37  76 S7        29.66F
WORTHINGTON    CLOUDY    46  36  68 CALM      29.68R
$$

IAZ001>003-012>014-020>022-031-032-NEZ013-014-SDZ071-220800-
NORTHWEST IOWA

CITY           SKY/WX    TMP DP  RH WIND       PRES   REMARKS
DENISON        CLEAR     48  37  66 S12       29.71F
ESTHERVILLE    CLEAR     38  36  92 S8        29.65F
LE MARS        CLEAR     46  36  66 S6G12     29.69R
SHELDON        CLOUDY    48  39  71 S12       29.65R
SIOUX CITY     CLEAR     46  35  65 SE6       29.69S
SPENCER        CLEAR     45  37  73 S9        29.66F
STORM LAKE     CLEAR     50  37  62 SW17      29.69F
$$

ABBREVIATIONS USED IN REMARKS
   TC - TEMPERATURE IN CELSIUS
  WCI - WIND CHILL INDEX
   HX - HEAT INDEX
  VSB - VISIBILITY





USA.gov is the U.S. government's official web portal to all federal, state and local government web resources and services.